Theta_e
292 289 288 292 289 289 288 286 285 287 291 288 289 288 292 293 290 291 294 291 292 293 294 294 296 296 298 300 300 299 302 300 300 299 298 297 293 293 294 295 296 296 296 295
289 287 294 293 290 289 287 285 285 288 290 289 288 288 291 294 293 295 297 293 293 290 290 293 293 296 301 299 300 300 300 299 300 300 295 295 293 291 291 291 291 292 292 291
289 291 293 293 288 287 285 285 285 287 288 288 286 285 287 291 292 296 296 293 293 292 291 292 293 296 301 301 300 300 299 298 298 294 293 291 291 291 290 289 289 289 289 289
289 292 291 289 288 289 284 289 288 287 285 282 286 281 286 289 291 295 292 291 291 291 291 292 293 295 299 300 300 300 299 298 295 294 293 293 294 291 288 288 288 288 288 287
289 289 288 287 289 291 288 289 287 287 284 281 281 280 282 287 290 293 291 290 289 289 290 291 293 295 300 301 300 299 298 294 294 294 294 294 293 288 287 287 286 286 286 286
289 291 291 291 290 291 290 288 286 284 282 279 283 283 283 286 290 290 290 290 290 288 288 290 291 296 299 299 298 297 295 293 293 294 293 292 288 287 285 285 284 284 284 284
287 289 289 291 288 289 287 286 280 278 276 279 281 280 288 290 291 290 291 291 291 287 287 288 291 294 297 296 296 294 293 291 292 292 291 290 288 287 286 285 284 283 283 282
285 283 289 290 291 288 286 286 281 274 275 278 282 279 286 290 291 291 289 288 287 286 287 287 289 294 296 295 294 293 292 291 292 290 289 289 288 287 286 286 285 284 283 282
284 284 288 288 289 292 285 283 288 282 271 273 281 284 289 292 291 290 289 289 288 287 287 287 289 291 294 294 292 292 292 291 289 289 289 288 287 287 286 285 285 283 282 281
290 284 285 287 289 288 288 289 282 281 272 271 278 280 284 288 289 288 288 288 288 287 286 286 288 289 290 291 291 293 292 290 289 289 288 288 287 287 286 284 282 282 281 280
290 288 283 286 285 285 285 283 284 285 281 274 272 281 286 288 289 289 289 289 288 287 286 286 286 286 287 288 289 292 290 289 288 288 288 287 286 285 285 283 282 281 280 279
291 289 281 283 287 288 287 287 287 283 278 278 278 282 289 289 289 288 289 288 287 287 286 285 285 285 284 285 285 288 289 288 288 288 287 286 285 285 283 281 281 280 279 278
293 288 283 285 288 288 285 286 289 287 284 279 277 283 287 286 287 288 288 287 287 286 284 284 284 284 284 284 284 285 287 287 287 287 286 285 284 283 282 281 280 279 278 278
298 290 286 283 285 287 284 286 288 289 285 280 285 287 289 288 288 289 288 288 286 285 285 284 283 283 284 284 284 284 284 286 286 286 285 283 283 283 281 280 279 279 278 277
295 285 289 289 290 288 286 286 287 286 288 285 288 288 293 294 294 294 290 288 286 285 284 284 284 283 283 283 283 283 284 284 284 284 283 283 283 282 281 280 279 278 277 277
295 286 287 287 289 289 285 287 287 287 289 289 289 288 293 294 292 290 291 289 287 287 286 285 284 284 283 283 283 283 283 283 284 283 282 283 282 280 279 279 278 277 277 276
290 288 285 284 286 286 283 287 286 287 289 289 286 291 296 291 292 293 293 290 290 289 289 286 284 284 285 284 284 283 283 283 282 282 282 281 281 279 279 278 277 277 276 276
287 288 288 285 285 278 287 289 293 291 292 292 292 294 295 293 292 292 291 292 292 290 289 288 287 285 285 284 283 283 282 282 282 282 281 281 280 279 278 277 277 276 275 275
290 288 286 283 283 284 286 283 285 286 288 293 292 294 295 295 286 290 291 292 294 293 292 290 288 285 283 283 283 282 281 281 281 281 280 280 280 279 277 277 276 275 275 275
289 290 285 284 280 277 283 285 286 288 284 293 293 293 293 289 285 292 291 290 288 288 288 288 286 282 282 282 282 281 280 281 280 281 281 280 280 279 278 277 276 276 276 275
282 285 282 283 282 284 285 281 285 281 283 284 290 293 291 288 290 287 285 285 284 285 285 283 282 281 281 281 281 280 280 280 282 282 281 280 280 279 279 277 276 276 275 276
281 281 282 283 281 280 282 282 283 286 282 284 283 285 286 287 287 285 284 284 284 284 283 282 280 279 279 281 281 280 280 282 282 282 280 280 280 279 278 277 276 276 276 275
280 284 281 281 281 283 283 281 286 284 284 282 282 283 285 286 285 284 283 282 281 277 279 276 278 277 276 279 281 279 279 281 281 280 279 280 280 278 278 277 276 275 276 276
281 281 282 283 284 283 284 285 283 284 283 281 282 283 284 284 285 283 280 280 281 276 276 274 276 276 275 274 277 277 279 280 280 278 279 279 279 278 278 278 277 276 275 276
283 284 281 281 283 285 286 286 285 285 285 281 280 282 284 283 280 281 278 277 279 278 274 274 275 275 275 273 274 276 277 279 279 278 278 279 279 279 278 277 277 276 278 279
282 282 281 281 285 287 287 288 287 289 290 286 283 280 280 282 282 278 277 278 276 276 272 272 271 271 270 271 272 273 277 279 277 276 277 279 279 278 277 276 276 281 281 281
Wind_Speed
2 3 9 15 7 4 5 4 5 3 3 3 9 8 16 8 6 13 17 12 14 16 8 8 8 8 7 7 7 7 7 6 6 4 3 3 4 4 4 4 6 7 9 9
4 9 11 5 5 4 3 3 7 6 3 5 9 12 14 15 11 17 22 11 15 6 8 9 9 9 10 7 7 8 7 8 6 4 3 3 4 4 5 3 8 6 10 8
9 4 4 7 4 5 5 6 4 7 3 3 6 8 7 7 7 19 15 7 8 15 14 11 13 13 12 12 10 9 9 7 6 8 7 7 7 5 3 3 4 5 6 8
7 3 5 4 5 8 5 8 5 3 2 5 3 11 6 8 11 13 8 8 9 9 7 9 13 14 15 11 9 9 9 9 8 10 7 12 6 6 3 4 5 6 7 6
8 8 5 4 6 7 7 4 6 2 3 4 3 3 2 2 9 11 6 4 5 7 8 10 15 14 13 11 10 9 10 9 9 8 8 7 7 4 7 7 9 7 5 6
4 1 6 7 3 4 8 6 6 5 2 5 10 8 4 7 9 2 2 2 3 3 4 6 5 11 13 10 10 9 10 9 9 9 9 9 11 11 10 9 8 6 5 5
2 5 3 4 7 3 2 6 2 4 2 9 2 4 13 10 10 7 7 7 8 2 5 7 13 13 11 14 13 11 11 10 10 10 8 9 11 11 11 11 9 10 8 6
9 7 12 7 10 10 9 9 8 9 5 5 1 9 9 9 8 6 4 4 1 4 5 6 6 12 14 11 10 11 12 11 12 11 10 10 10 7 7 7 8 7 6 7
7 7 0 2 3 9 7 7 5 6 2 2 6 8 9 12 9 7 8 5 4 5 7 8 8 8 10 10 11 10 10 9 10 11 10 11 10 10 7 9 7 6 7 7
7 2 1 2 2 2 6 8 4 2 3 6 6 6 9 5 4 3 3 7 6 5 6 6 8 10 8 8 7 9 10 11 10 10 9 9 10 11 11 10 10 9 7 8
6 3 0 3 7 10 5 4 2 6 6 6 3 9 9 8 5 5 4 5 7 7 8 7 6 6 6 7 10 12 11 11 10 10 10 11 11 12 12 10 11 11 10 9
6 5 5 7 3 2 2 7 6 6 6 5 3 13 2 7 7 4 6 3 4 6 7 7 8 7 7 8 7 11 12 13 13 11 11 11 10 11 12 12 12 12 11 8
9 4 4 0 2 1 5 6 8 5 4 9 6 8 2 2 6 7 6 4 5 5 6 6 7 9 8 8 8 7 12 13 13 12 12 11 12 13 14 13 13 14 14 11
5 5 7 8 2 6 6 6 7 14 10 4 23 12 6 5 8 5 4 5 5 7 8 7 7 9 9 10 11 11 9 10 13 14 15 13 14 14 13 13 13 11 11 13
7 6 7 8 6 7 4 7 19 21 23 15 18 22 23 14 11 11 7 6 7 8 9 10 10 11 11 11 11 11 12 12 13 14 14 15 13 12 13 13 13 12 12 10
9 7 6 9 15 11 10 21 18 24 22 25 18 30 8 7 4 6 10 9 9 9 10 10 10 11 14 15 14 13 13 12 13 13 13 13 13 12 13 12 13 12 11 11
8 6 7 11 8 13 13 34 13 9 15 22 23 36 17 9 11 10 12 9 10 12 13 12 15 16 16 16 14 15 13 12 14 13 13 14 15 15 14 14 14 13 12 11
5 7 6 14 7 15 11 8 23 21 20 19 23 29 21 12 10 12 7 8 11 10 10 11 11 11 12 10 12 11 12 14 13 13 13 14 15 15 14 14 13 11 10 12
7 5 8 10 14 5 7 8 10 12 20 23 27 28 25 19 2 12 10 10 11 10 8 9 9 8 10 14 14 15 14 14 14 15 15 16 16 15 15 15 14 12 11 10
14 13 10 5 6 10 9 6 7 7 14 20 21 25 24 6 6 16 5 6 5 6 4 6 5 6 10 10 14 16 17 16 18 17 16 15 16 17 17 16 15 12 11 11
3 9 18 16 14 7 8 4 5 11 10 7 13 21 12 10 7 2 4 3 2 1 3 2 5 6 7 10 13 12 13 16 12 12 13 15 15 16 15 14 12 12 11 9
8 5 5 9 13 18 6 3 11 7 2 1 2 5 8 5 7 5 4 5 5 4 2 3 6 5 5 9 11 11 12 9 10 13 14 15 15 12 12 14 12 12 11 10
5 7 2 5 5 2 5 2 3 3 0 1 2 3 4 5 5 7 5 5 2 2 2 2 5 5 2 7 9 10 7 11 12 13 13 13 14 12 13 14 13 11 10 9
3 4 6 2 4 3 4 6 1 5 5 3 5 4 4 3 6 5 4 4 4 1 1 2 6 5 4 3 5 4 9 10 13 13 12 12 13 12 11 9 9 11 11 10
2 6 4 5 5 6 4 6 4 2 7 5 4 4 4 3 2 4 4 3 4 4 2 2 4 5 6 5 6 7 9 12 11 10 10 10 9 11 11 11 12 12 12 14
6 6 4 5 5 3 6 6 4 9 12 8 7 4 4 4 6 4 4 4 4 5 3 3 3 4 4 5 6 5 8 11 11 9 8 9 8 8 8 8 6 17 16 18
Wind_Direction
13 123 206 210 191 154 145 190 240 239 230 174 234 247 265 267 238 264 252 230 226 224 212 178 177 170 170 166 147 151 138 141 134 127 110 85 82 77 88 54 84 97 105 107
60 231 226 128 168 179 163 198 252 284 222 189 269 249 252 259 241 239 254 227 229 191 188 184 172 171 187 164 159 154 154 160 159 127 104 118 120 80 75 123 86 109 106 110
177 212 136 148 146 164 217 194 219 222 323 231 316 272 242 274 249 258 256 247 217 205 200 184 180 182 186 186 167 163 166 162 146 126 113 100 96 98 86 84 88 74 98 115
236 244 139 164 191 155 235 205 186 215 61 255 19 292 229 236 258 263 279 229 232 215 194 181 180 183 188 179 164 163 161 158 153 152 147 159 160 155 141 132 121 98 96 127
236 167 168 173 199 160 229 122 162 154 176 351 331 290 186 147 243 267 300 337 270 238 200 187 185 177 177 170 166 162 162 159 154 158 161 159 142 112 128 126 121 112 102 90
240 153 173 192 116 158 149 87 57 47 77 271 195 174 212 181 218 224 235 313 327 263 194 147 139 162 174 160 158 161 161 162 160 161 161 157 143 148 143 143 134 127 110 99
140 210 193 155 94 50 136 94 329 329 360 244 140 237 261 283 248 213 239 288 313 116 159 154 160 178 175 169 163 159 162 165 165 162 156 148 144 152 144 154 148 147 139 129
180 267 169 186 182 170 198 159 163 224 214 274 119 239 253 243 272 266 183 220 256 151 177 177 169 180 181 174 164 166 170 165 169 166 156 149 148 149 152 148 146 128 127 121
167 263 254 145 145 151 194 196 158 97 60 12 227 284 287 272 274 251 242 233 236 196 186 175 162 167 176 171 171 171 169 167 167 159 153 151 148 144 139 121 116 104 104 115
205 232 158 151 118 50 154 164 94 1 203 253 276 267 235 253 207 6 281 258 231 203 193 183 179 170 159 157 156 168 172 173 167 158 154 152 144 137 133 131 120 126 127 130
146 150 53 97 206 179 144 182 120 129 155 179 289 256 217 229 208 186 223 240 218 201 193 189 179 176 163 154 164 168 166 163 165 163 156 153 152 145 141 139 141 142 136 137
189 152 176 195 236 244 219 192 153 145 209 238 165 259 195 207 199 223 255 261 204 201 189 182 176 174 176 179 168 171 170 167 168 165 159 156 147 145 145 144 146 143 137 136
172 169 145 230 352 321 203 207 194 105 99 205 159 262 65 273 276 251 253 240 207 189 181 183 181 189 180 181 183 177 175 172 162 157 159 155 160 162 162 158 153 151 145 144
110 185 204 201 119 132 178 188 205 209 224 147 236 276 236 253 245 255 202 234 196 190 196 197 197 199 193 189 183 181 184 174 164 160 160 167 170 169 162 154 149 146 148 143
144 218 217 245 158 141 182 228 214 209 213 204 255 234 241 228 253 262 206 205 181 208 212 210 203 198 198 195 190 186 185 171 165 164 167 168 169 164 157 156 152 147 147 145
175 197 202 241 260 233 219 230 217 221 225 242 258 267 125 209 196 179 220 213 208 219 221 213 209 198 201 202 197 181 180 176 167 168 168 160 160 158 161 153 149 147 147 146
184 177 172 240 188 202 220 229 186 192 211 219 233 246 259 246 218 236 243 207 218 222 220 203 205 209 206 201 191 189 175 165 170 167 164 161 162 163 163 156 156 159 156 149
210 196 213 256 169 223 242 165 210 218 228 216 243 255 256 230 224 232 215 202 227 221 218 216 207 210 203 180 181 166 164 170 170 167 165 164 165 165 159 156 159 153 154 160
200 183 234 226 224 271 290 195 151 172 242 228 228 245 260 262 25 263 211 216 226 235 236 221 199 185 170 175 168 162 166 169 171 177 171 169 168 162 159 159 159 159 162 165
227 223 237 236 225 239 258 233 170 120 242 238 205 231 242 150 225 264 186 188 224 265 253 241 196 157 165 171 164 166 173 176 186 180 173 165 165 167 169 168 166 168 170 171
169 223 237 247 254 250 258 170 144 171 240 189 191 217 220 191 204 164 118 95 75 87 246 112 152 165 160 154 160 171 175 193 176 163 160 166 172 171 170 163 168 169 168 168
225 218 232 229 241 249 156 58 173 222 17 296 223 207 194 165 159 178 158 129 118 120 93 129 134 134 144 155 161 172 186 163 154 157 163 166 166 164 168 170 167 172 170 171
224 203 211 222 232 307 244 291 308 14 13 314 259 285 208 182 196 175 181 168 128 114 95 50 143 135 133 162 171 174 165 151 149 153 161 166 165 168 170 171 169 171 174 181
257 163 196 168 252 272 306 305 287 15 333 357 256 206 216 199 178 186 161 175 166 141 140 132 130 145 178 177 146 138 147 142 147 154 163 167 171 170 173 178 182 177 184 186
168 155 193 267 292 300 249 203 135 263 262 264 340 303 287 254 257 187 178 184 170 148 158 130 143 162 191 159 143 145 146 147 153 156 160 168 175 178 181 192 190 190 199 194
184 196 190 223 218 154 264 300 202 185 215 230 220 260 263 216 212 163 167 186 172 168 160 130 156 144 170 152 144 142 149 153 149 150 161 175 175 176 181 187 196 213 210 213